| time (UTC) | temp F | wind direction | speed MPH | gust MPH | rain 1hr in | rain 24hr in | rain mn in | humidity % | barometer mb |
| 20260507225443 | 70 | 282 | 3.0 | 9.0 | 0.00 | 0.00 | 0.00 | 33 | 1018.7 |
| 20260507224442 | 70 | 287 | 3.0 | 11.0 | 0.00 | 0.00 | 0.00 | 33 | 1018.8 |
| 20260507223441 | 70 | 287 | 4.0 | 11.0 | 0.00 | 0.00 | 0.00 | 35 | 1018.9 |
| 20260507222439 | 70 | 275 | 1.0 | 9.0 | 0.00 | 0.00 | 0.00 | 34 | 1019.1 |
| 20260507221439 | 70 | 287 | 3.0 | 9.0 | 0.00 | 0.00 | 0.00 | 35 | 1019.1 |
| 20260507220437 | 70 | 289 | 2.0 | 9.0 | 0.00 | 0.00 | 0.00 | 34 | 1019.1 |
| 20260507215436 | 70 | 267 | 2.0 | 9.0 | 0.00 | 0.00 | 0.00 | 34 | 1019.5 |
| 20260507214435 | 71 | 295 | 1.0 | 9.0 | 0.00 | 0.00 | 0.00 | 34 | 1019.6 |
| 20260507213434 | 71 | 292 | 2.0 | 9.0 | 0.00 | 0.00 | 0.00 | 34 | 1019.7 |
| 20260507212432 | 70 | 300 | 1.0 | 7.0 | 0.00 | 0.00 | 0.00 | 38 | 1019.6 |
| 20260507211400 | 70 | 294 | 1.0 | 10.0 | 0.00 | 0.00 | 0.00 | 34 | 1020.0 |
| 20260507210359 | 70 | 256 | 2.0 | 10.0 | 0.00 | 0.00 | 0.00 | 36 | 1020.1 |
| 20260507205358 | 70 | 307 | 2.0 | 11.0 | 0.00 | 0.00 | 0.00 | 37 | 1020.2 |
| 20260507204356 | 70 | 299 | 1.0 | 9.0 | 0.00 | 0.00 | 0.00 | 39 | 1020.4 |
| 20260507203253 | 70 | 272 | 3.0 | 10.0 | 0.00 | 0.00 | 0.00 | 43 | 1020.5 |
| 20260507202252 | 69 | 274 | 3.0 | 10.0 | 0.00 | 0.00 | 0.00 | 38 | 1020.8 |
| 20260507201251 | 69 | 293 | 3.0 | 9.0 | 0.00 | 0.00 | 0.00 | 43 | 1020.9 |
| 20260507200148 | 69 | 287 | 3.0 | 9.0 | 0.00 | 0.00 | 0.00 | 40 | 1020.9 |
| 20260507195147 | 70 | 295 | 2.0 | 8.0 | 0.00 | 0.00 | 0.00 | 38 | 1020.9 |
| 20260507194115 | 68 | 280 | 2.0 | 7.0 | 0.00 | 0.00 | 0.00 | 43 | 1020.8 |
| 20260507193114 | 69 | 300 | 2.0 | 8.0 | 0.00 | 0.00 | 0.00 | 41 | 1020.8 |
| 20260507192113 | 68 | 278 | 4.0 | 8.0 | 0.00 | 0.00 | 0.00 | 41 | 1020.8 |
| 20260507191040 | 68 | 282 | 2.0 | 8.0 | 0.00 | 0.00 | 0.00 | 42 | 1020.8 |
| 20260507190039 | 67 | 266 | 3.0 | 8.0 | 0.00 | 0.00 | 0.00 | 43 | 1020.7 |
| 20260507185038 | 67 | 282 | 3.0 | 8.0 | 0.00 | 0.00 | 0.00 | 44 | 1020.8 |
| 20260507184037 | 66 | 265 | 3.0 | 8.0 | 0.00 | 0.00 | 0.00 | 47 | 1020.8 |
| 20260507183036 | 66 | 267 | 1.0 | 5.0 | 0.00 | 0.00 | 0.00 | 43 | 1020.8 |
| 20260507182035 | 67 | 280 | 1.0 | 6.0 | 0.00 | 0.00 | 0.00 | 45 | 1021.2 |
| 20260507181034 | 65 | 244 | 2.0 | 6.0 | 0.00 | 0.00 | 0.00 | 47 | 1021.0 |
| 20260507180033 | 65 | 262 | 3.0 | 9.0 | 0.00 | 0.00 | 0.00 | 47 | 1020.7 |
| 20260507175032 | 65 | 253 | 4.0 | 9.0 | 0.00 | 0.00 | 0.00 | 47 | 1020.9 |
| 20260507174031 | 65 | 15 | 1.0 | 3.0 | 0.00 | 0.00 | 0.00 | 47 | 1020.9 |
| 20260507173030 | 64 | 40 | 1.0 | 4.0 | 0.00 | 0.00 | 0.00 | 48 | 1020.8 |
| 20260507172029 | 63 | 11 | 2.0 | 4.0 | 0.00 | 0.00 | 0.00 | 50 | 1020.8 |
| 20260507171028 | 62 | 25 | 2.0 | 3.0 | 0.00 | 0.00 | 0.00 | 53 | 1021.0 |
| 20260507170027 | 61 | 26 | 2.0 | 3.0 | 0.00 | 0.00 | 0.00 | 56 | 1020.6 |
| 20260507165026 | 61 | 26 | 1.0 | 4.0 | 0.00 | 0.00 | 0.00 | 57 | 1020.4 |
| 20260507164025 | 61 | 5 | 0.0 | 4.0 | 0.00 | 0.00 | 0.00 | 53 | 1020.5 |
| 20260507162952 | 61 | 359 | 1.0 | 4.0 | 0.00 | 0.00 | 0.00 | 55 | 1020.4 |
| 20260507161952 | 60 | 18 | 2.0 | 3.0 | 0.00 | 0.00 | 0.00 | 55 | 1020.4 |
| 20260507160951 | 60 | 24 | 1.0 | 3.0 | 0.00 | 0.00 | 0.00 | 59 | 1020.4 |
| 20260507155949 | 60 | 44 | 1.0 | 4.0 | 0.00 | 0.00 | 0.00 | 60 | 1020.4 |
| 20260507154948 | 60 | 293 | 2.0 | 5.0 | 0.00 | 0.00 | 0.00 | 51 | 1020.3 |
| 20260507153947 | 59 | 288 | 3.0 | 7.0 | 0.00 | 0.00 | 0.00 | 56 | 1020.7 |
| 20260507152947 | 59 | 266 | 2.0 | 7.0 | 0.00 | 0.00 | 0.00 | 57 | 1020.7 |
| 20260507151914 | 59 | 264 | 3.0 | 5.0 | 0.00 | 0.00 | 0.00 | 57 | 1020.8 |
| 20260507150913 | 58 | 277 | 2.0 | 7.0 | 0.00 | 0.00 | 0.00 | 57 | 1020.5 |
| 20260507145911 | 58 | 270 | 3.0 | 7.0 | 0.00 | 0.00 | 0.00 | 57 | 1020.6 |
| 20260507144910 | 58 | 289 | 2.0 | 6.0 | 0.00 | 0.00 | 0.00 | 59 | 1020.7 |
| 20260507143909 | 58 | 289 | 2.0 | 8.0 | 0.00 | 0.00 | 0.00 | 58 | 1020.8 |
| 20260507142908 | 58 | 281 | 4.0 | 8.0 | 0.00 | 0.00 | 0.00 | 55 | 1020.9 |
| 20260507141907 | 57 | 287 | 2.0 | 6.0 | 0.00 | 0.00 | 0.00 | 56 | 1020.5 |
| 20260507140906 | 56 | 266 | 3.0 | 6.0 | 0.00 | 0.00 | 0.00 | 60 | 1020.5 |
| 20260507135905 | 56 | 267 | 2.0 | 4.0 | 0.00 | 0.00 | 0.00 | 59 | 1020.1 |
| 20260507134904 | 55 | 261 | 1.0 | 4.0 | 0.00 | 0.00 | 0.00 | 60 | 1020.1 |
| 20260507133901 | 54 | 255 | 2.0 | 4.0 | 0.00 | 0.00 | 0.00 | 60 | 1020.0 |
| 20260507132829 | 53 | 236 | 1.0 | 5.0 | 0.00 | 0.00 | 0.00 | 62 | 1019.5 |
| 20260507131828 | 52 | 229 | 2.0 | 5.0 | 0.00 | 0.00 | 0.00 | 63 | 1019.4 |
| 20260507130827 | 49 | 239 | 1.0 | 5.0 | 0.00 | 0.00 | 0.00 | 67 | 1019.1 |
| 20260507125826 | 48 | 230 | 3.0 | 5.0 | 0.00 | 0.00 | 0.00 | 71 | 1019.0 |
| 20260507124825 | 48 | 237 | 2.0 | 5.0 | 0.00 | 0.00 | 0.00 | 73 | 1019.0 |
| 20260507123823 | 47 | 235 | 2.0 | 5.0 | 0.00 | 0.00 | 0.00 | 73 | 1018.8 |
| 20260507122823 | 47 | 233 | 4.0 | 5.0 | 0.00 | 0.00 | 0.00 | 75 | 1018.5 |
| 20260507121822 | 47 | 217 | 1.0 | 5.0 | 0.00 | 0.00 | 0.00 | 75 | 1018.6 |
| 20260507120820 | 47 | 222 | 2.0 | 5.0 | 0.00 | 0.00 | 0.00 | 75 | 1018.6 |
| 20260507115819 | 47 | 220 | 3.0 | 5.0 | 0.00 | 0.00 | 0.00 | 76 | 1018.6 |
| 20260507114747 | 48 | 156 | 0.0 | 2.0 | 0.00 | 0.00 | 0.00 | 74 | 1018.7 |
| 20260507113643 | 49 | 153 | 1.0 | 2.0 | 0.00 | 0.00 | 0.00 | 74 | 1018.9 |
| 20260507112642 | 49 | 153 | 1.0 | 3.0 | 0.00 | 0.00 | 0.00 | 74 | 1018.9 |
| 20260507111609 | 49 | 152 | 2.0 | 3.0 | 0.00 | 0.00 | 0.00 | 73 | 1019.0 |
| 20260507110608 | 50 | 162 | 2.0 | 4.0 | 0.00 | 0.00 | 0.00 | 72 | 1019.1 |
| 20260507105607 | 51 | 165 | 2.0 | 5.0 | 0.00 | 0.00 | 0.00 | 70 | 1019.2 |
| 20260507104607 | 52 | 170 | 1.0 | 3.0 | 0.00 | 0.00 | 0.00 | 69 | 1019.4 |
| 20260507103606 | 53 | 287 | 0.0 | 0.0 | 0.00 | 0.00 | 0.00 | 66 | 1019.6 |
| 20260507102605 | 54 | 286 | 0.0 | 3.0 | 0.00 | 0.00 | 0.00 | 65 | 1019.8 |
| 20260507101604 | 55 | 12 | 1.0 | 5.0 | 0.00 | 0.00 | 0.00 | 63 | 1020.3 |
| 20260507100603 | 55 | 241 | 1.0 | 5.0 | 0.00 | 0.00 | 0.00 | 61 | 1020.1 |
| 20260507095602 | 55 | 223 | 2.0 | 5.0 | 0.00 | 0.00 | 0.00 | 61 | 1020.2 |
| 20260507094601 | 56 | 221 | 2.0 | 6.0 | 0.00 | 0.00 | 0.00 | 61 | 1020.3 |
| 20260507093600 | 56 | 221 | 2.0 | 6.0 | 0.00 | 0.00 | 0.00 | 60 | 1020.2 |
| 20260507092559 | 56 | 224 | 2.0 | 5.0 | 0.00 | 0.00 | 0.00 | 59 | 1019.9 |
| 20260507091558 | 57 | 227 | 1.0 | 5.0 | 0.00 | 0.00 | 0.00 | 59 | 1020.0 |
| 20260507090454 | 58 | 226 | 3.0 | 5.0 | 0.00 | 0.00 | 0.00 | 58 | 1020.1 |
| 20260507085454 | 58 | 55 | 1.0 | 3.0 | 0.00 | 0.00 | 0.00 | 57 | 1020.2 |
| 20260507084453 | 59 | 19 | 2.0 | 5.0 | 0.00 | 0.00 | 0.00 | 54 | 1020.3 |
| 20260507083452 | 61 | 232 | 0.0 | 6.0 | 0.00 | 0.00 | 0.00 | 52 | 1020.3 |
| 20260507082420 | 61 | 233 | 1.0 | 11.0 | 0.00 | 0.00 | 0.00 | 50 | 1020.4 |
| 20260507081419 | 62 | 244 | 2.0 | 11.0 | 0.00 | 0.00 | 0.00 | 49 | 1020.5 |
| 20260507080418 | 62 | 238 | 2.0 | 10.0 | 0.00 | 0.00 | 0.00 | 49 | 1020.5 |
| 20260507075417 | 62 | 232 | 2.0 | 9.0 | 0.00 | 0.00 | 0.00 | 48 | 1020.5 |
| 20260507074415 | 62 | 233 | 3.0 | 9.0 | 0.00 | 0.00 | 0.00 | 49 | 1020.4 |
| 20260507073311 | 61 | 242 | 2.0 | 8.0 | 0.00 | 0.00 | 0.00 | 50 | 1020.3 |
| 20260507072239 | 62 | 224 | 2.0 | 6.0 | 0.00 | 0.00 | 0.00 | 51 | 1020.1 |
| 20260507071238 | 62 | 225 | 2.0 | 6.0 | 0.00 | 0.00 | 0.00 | 49 | 1020.1 |
| 20260507070238 | 63 | 224 | 4.0 | 6.0 | 0.00 | 0.00 | 0.00 | 47 | 1020.1 |
| 20260507065237 | 63 | 230 | 1.0 | 7.0 | 0.00 | 0.00 | 0.00 | 47 | 1020.2 |
| 20260507064236 | 63 | 235 | 2.0 | 7.0 | 0.00 | 0.00 | 0.00 | 47 | 1020.1 |
| 20260507063235 | 64 | 226 | 2.0 | 7.0 | 0.00 | 0.00 | 0.00 | 46 | 1020.2 |
| 20260507062234 | 64 | 226 | 2.0 | 11.0 | 0.00 | 0.00 | 0.00 | 45 | 1020.3 |
| 20260507061131 | 64 | 224 | 2.0 | 12.0 | 0.00 | 0.00 | 0.00 | 45 | 1020.1 |
| 20260507060130 | 64 | 228 | 2.0 | 11.0 | 0.00 | 0.00 | 0.00 | 46 | 1020.0 |
| 20260507055058 | 63 | 226 | 2.0 | 11.0 | 0.00 | 0.00 | 0.00 | 47 | 1020.0 |
| 20260507054057 | 64 | 223 | 2.0 | 10.0 | 0.00 | 0.00 | 0.00 | 49 | 1020.0 |
| 20260507053024 | 64 | 223 | 2.0 | 10.0 | 0.00 | 0.00 | 0.00 | 48 | 1019.8 |
| 20260507051952 | 64 | 228 | 4.0 | 10.0 | 0.00 | 0.00 | 0.00 | 48 | 1019.7 |
| 20260507050951 | 64 | 223 | 3.0 | 9.0 | 0.00 | 0.00 | 0.00 | 48 | 1019.8 |
| 20260507045950 | 63 | 232 | 3.0 | 8.0 | 0.00 | 0.00 | 0.00 | 50 | 1019.6 |
| 20260507044949 | 62 | 232 | 3.0 | 9.0 | 0.00 | 0.00 | 0.00 | 53 | 1019.3 |
| 20260507043948 | 60 | 225 | 2.0 | 9.0 | 0.00 | 0.00 | 0.00 | 61 | 1019.1 |
| 20260507042947 | 60 | 175 | 1.0 | 4.0 | 0.00 | 0.00 | 0.00 | 69 | 1019.1 |
| 20260507041914 | 60 | 147 | 2.0 | 5.0 | 0.00 | 0.00 | 0.00 | 69 | 1019.0 |
| 20260507040842 | 61 | 156 | 2.0 | 5.0 | 0.00 | 0.00 | 0.00 | 69 | 1018.9 |
| 20260507035810 | 61 | 159 | 1.0 | 4.0 | 0.00 | 0.00 | 0.00 | 69 | 1018.8 |
| 20260507034738 | 61 | 146 | 0.0 | 2.0 | 0.00 | 0.00 | 0.00 | 68 | 1018.8 |
| 20260507033737 | 62 | 96 | 1.0 | 3.0 | 0.00 | 0.00 | 0.00 | 68 | 1018.8 |
| 20260507032705 | 62 | 94 | 1.0 | 3.0 | 0.00 | 0.00 | 0.00 | 67 | 1018.8 |
| 20260507031704 | 63 | 38 | 1.0 | 2.0 | 0.00 | 0.00 | 0.00 | 66 | 1018.8 |
| 20260507030703 | 64 | 37 | 0.0 | 2.0 | 0.00 | 0.00 | 0.00 | 66 | 1018.8 |
| 20260507025702 | 65 | 36 | 0.0 | 1.0 | 0.00 | 0.00 | 0.00 | 62 | 1018.9 |
| 20260507024700 | 66 | 36 | 1.0 | 1.0 | 0.00 | 0.00 | 0.00 | 61 | 1018.5 |
| 20260507023659 | 67 | 35 | 0.0 | 1.0 | 0.00 | 0.00 | 0.00 | 60 | 1018.6 |
| 20260507022658 | 68 | 35 | 0.0 | 0.0 | 0.00 | 0.00 | 0.00 | 55 | 1018.8 |
| 20260507021657 | 68 | 34 | 0.0 | 3.0 | 0.00 | 0.00 | 0.00 | 52 | 1018.7 |
| 20260507020656 | 69 | 35 | 0.0 | 3.0 | 0.00 | 0.00 | 0.00 | 50 | 1018.3 |
| 20260507015654 | 69 | 20 | 1.0 | 4.0 | 0.00 | 0.00 | 0.00 | 51 | 1018.3 |
| 20260507014654 | 69 | 12 | 0.0 | 4.0 | 0.00 | 0.00 | 0.00 | 50 | 1018.2 |
| 20260507013652 | 69 | 15 | 1.0 | 4.0 | 0.00 | 0.00 | 0.00 | 50 | 1018.1 |
| 20260507012651 | 69 | 20 | 2.0 | 4.0 | 0.00 | 0.00 | 0.00 | 51 | 1018.1 |
| 20260507011650 | 70 | 23 | 2.0 | 4.0 | 0.00 | 0.00 | 0.00 | 50 | 1018.0 |
| 20260507010618 | 70 | 19 | 1.0 | 4.0 | 0.00 | 0.00 | 0.00 | 50 | 1018.1 |
| 20260507005546 | 70 | 24 | 2.0 | 3.0 | 0.00 | 0.00 | 0.00 | 51 | 1018.1 |
| 20260507004513 | 70 | 18 | 2.0 | 3.0 | 0.00 | 0.00 | 0.00 | 50 | 1018.1 |
| 20260507003512 | 70 | 335 | 0.0 | 2.0 | 0.00 | 0.00 | 0.00 | 49 | 1018.1 |
| 20260507002409 | 70 | 16 | 1.0 | 3.0 | 0.00 | 0.00 | 0.00 | 50 | 1018.1 |
| 20260507001408 | 71 | 21 | 1.0 | 3.0 | 0.00 | 0.00 | 0.00 | 47 | 1018.1 |
| 20260507000407 | 71 | 17 | 2.0 | 4.0 | 0.00 | 0.00 | 0.00 | 48 | 1017.8 |
| 20260506235406 | 71 | 21 | 1.0 | 4.0 | 0.00 | 0.00 | 0.00 | 48 | 1017.7 |
| 20260506234406 | 71 | 61 | 1.0 | 4.0 | 0.00 | 0.00 | 0.00 | 46 | 1017.7 |
| 20260506233333 | 71 | 71 | 1.0 | 5.0 | 0.00 | 0.00 | 0.00 | 46 | 1017.7 |
| 20260506232332 | 71 | 17 | 2.0 | 5.0 | 0.00 | 0.00 | 0.00 | 48 | 1018.0 |
| 20260506231331 | 71 | 31 | 2.0 | 4.0 | 0.00 | 0.00 | 0.00 | 49 | 1017.8 |